Location: Bruderhein
(53.8035°N, 112.9265°W)
Time: 10:54:04
(UTC+00:00)

KKS-1 - Pass Details

Date: 05 April 2023
Orbit: 633 x 644 km, 98.2° (Epoch: 30 May)

Event Time Altitude Azimuth Distance (km) Brightness Sun altitude
Rises 07:35:19 0° 7° (N) 2,946 ? -30.2°
Reaches altitude 10° 07:37:50 10° 354° (N) 2,032 ? -30.2°
Enters shadow 07:41:08 24° 306° (NW) 1,318 ? -30.2°
